SAR-Lupe-2 - Orbit

View from above orbital plane
View from above orbital plane
View from above satellite
View from above satellite

Ground track
Ground track

The orbit data is extracted from the following two-line orbital elements,

1 31797U 07030A   13134.30948618 0.00010000  00000-0  36908-3 0    01
2 31797  98.1589  90.4694 0003000  16.8298 343.1700 15.27794386    08
Epoch (UTC): 14 May 2013 07:25:39
Eccentricity: 0.0003000
inclination: 98.1589°
perigee height: 480 km
apogee height: 484 km
right ascension of ascending node: 90.4694°
argument of perigee: 16.8298°
revolutions per day: 15.27794386
mean anomaly at epoch: 343.1700°
orbit number at epoch: 0

The dashed part of the orbit path shows where the satellite is in the earth's shadow,  

Developed and maintained by Chris Peat, Heavens-Above GmbH. Please read the updated FAQ before sending e-mail. Imprint. DLR